Погода в Сыаганнахе

Россия / Республика Саха (Якутия)     68°22′17″N   143°37′57″E
темп.,
°C
ветер,
м/с
пор.,
м/с
влажн.,
%
обл.,
%
осадки,
мм/ч
давл.,
гПа
погр.,
м
1 марта, пн
пн123:00−38зсз0010055 0.0 102719
02:00−39з1110074 0.0 102619
05:00−39зсз1110052 0.0 102519
08:00−40зсз111006 0.0 102519
11:00−37зсз119617 0.0 102519
14:00−34зсз129212 0.0 1024137
17:00−35сз129510 0.0 102319
20:00−38зсз22974 0.0 102419
2 марта, вт
вт223:00−38зсз229617 0.0 102419
02:00−38зсз229775 0.0 102419
05:00−38зсз229774 0.0 102519
08:00−38зсз129953 0.0 102619
11:00−35зсз129651 0.0 102619
14:00−32зсз12929 0.0 1026166
17:00−34зсз119441 0.0 102719
20:00−37сз0110054 0.0 102819
3 марта, ср
ср323:00−38сз1110062 0.0 102819
02:00−37с1110086 0.0 102819
05:00−37ссв119893 0.0 102719
08:00−37всв1198100 0.0 102619
11:00−35св2296100 0.0 1025130
14:00−33ссв2291100 0.0 1023286
17:00−32ссв1293100 0.1 1021339
20:00−33ссз1199100 0.2 102119
4 марта, чт
чт423:00−33ссз2299100 0.3 101935
02:00−33с3498100 0.1 101785
05:00−33сз3598100 0.2 1016151
08:00−33ссз5997100 0.1 1014370
11:00−31ссз71196100 0.4 1012537
14:00−29ссз91395100 0.3 1009590
17:00−28сз101496100 0.9 1008712
20:00−26ссз101597100 0.8 1007849
5 марта, пт
пт523:00−26ссз101696100 1.8 1006877
02:00−25ссз101596100 0.9 1005944
05:00−25ссз101497100 2.3 1005936
08:00−24ссз101596100 1.7 1006897
11:00−25ссз101496100 3.1 1007902
14:00−25ссз101396100 1.3 1007887
17:00−24ссз81197100 2.4 10081093
20:00−25ссз91397100 1.2 1010971